This demonstration page uses our WeatherBlox Daily Observations layout. Learn more.

Left ArrowRight Arrow

39.29038, -76.61219

Hourly Observations for March 26, 2018

Temp ( °F °C ) Dew Point ( °F °C ) Humidity (%) Winds ( mph kmh ) Pressure ( in mb ) Visibility ( mi km ) Precip ( " mm )
12:54 am 00:54 undefined 39 3.9 30 -1.1 70 70 undefined N/A 30.58 1036 N/A 0.00 0.00
1:54 am 01:54 undefined 38 3.3 29 -1.7 70 70 undefined N/A 30.59 1036 N/A 0.00 0.00
2:54 am 02:54 undefined 38 3.3 29 -1.7 70 70 undefined N/A 30.60 1036 N/A 0.00 0.00
3:54 am 03:54 undefined 37 2.8 29 -1.7 73 73 undefined N/A 30.59 1036 N/A 0.00 0.00
4:54 am 04:54 undefined 37 2.8 28 -2.2 70 70 undefined N/A 30.60 1036 N/A 0.00 0.00
5:54 am 05:54 undefined 37 2.8 28 -2.2 70 70 undefined N/A 30.61 1037 N/A 0.00 0.00
6:54 am 06:54 undefined 36 2.2 27 -2.8 70 70 undefined N/A 30.63 1037 N/A 0.00 0.00
7:54 am 07:54 undefined 37 2.8 26 -3.3 65 65 undefined N/A 30.65 1038 N/A 0.00 0.00
8:54 am 08:54 undefined 39 3.9 25 -3.9 57 57 undefined N/A 30.68 1039 N/A 0.00 0.00
9:54 am 09:54 undefined 41 5 23 -5 49 49 undefined N/A 30.69 1039 N/A 0.00 0.00
10:54 am 10:54 undefined 44 6.7 23 -5 43 43 undefined N/A 30.71 1040 N/A 0.00 0.00
11:54 am 11:54 undefined 45 7.2 23 -5 42 42 undefined N/A 30.71 1040 N/A 0.00 0.00
12:54 pm 12:54 undefined 47 8.3 24 -4.4 41 41 undefined N/A 30.70 1040 N/A 0.00 0.00
1:54 pm 13:54 undefined 47 8.3 24 -4.4 41 41 undefined N/A 30.68 1039 N/A 0.00 0.00
2:54 pm 14:54 undefined 48 8.9 24 -4.4 39 39 undefined N/A 30.66 1038 N/A 0.00 0.00
3:54 pm 15:54 undefined 48 8.9 26 -3.3 42 42 undefined N/A 30.65 1038 N/A 0.00 0.00
4:54 pm 16:54 undefined 49 9.4 26 -3.3 41 41 undefined N/A 30.63 1037 N/A 0.00 0.00
5:54 pm 17:54 undefined 47 8.3 25 -3.9 42 42 undefined N/A 30.63 1037 N/A 0.00 0.00
6:54 pm 18:54 undefined 46 7.8 25 -3.9 44 44 undefined N/A 30.64 1038 N/A 0.00 0.00
7:54 pm 19:54 undefined 45 7.2 26 -3.3 48 48 undefined N/A 30.63 1037 N/A 0.00 0.00
8:54 pm 20:54 undefined 43 6.1 30 -1.1 60 60 undefined N/A 30.66 1038 N/A 0.00 0.00
9:54 pm 21:54 undefined 41 5 28 -2.2 60 60 undefined N/A 30.68 1039 N/A 0.00 0.00
10:54 pm 22:54 undefined 40 4.4 27 -2.8 60 60 undefined N/A 30.68 1039 N/A 0.00 0.00
11:54 pm 23:54 undefined 39 3.9 27 -2.8 62 62 undefined N/A 30.66 1038 N/A 0.00 0.00

Powered by AerisWeather